x

Eastern Caribbean - 190 Nm Nne Of Curacao (42059) Wave Buoy

12:50am - Wed 27th May 2015 All times are AST. -4 hours from GMT.

  • Sig Wave height 3.9ft
  • Swell Direction
  • Peak Period 7s
  • Average Period 5s
  • Wind
    13mph, 16mph gusts
  • Sea Temp 81°f
  • Air Temp 80°f
  • Sea Pressure 1014.3mb
  • Eastern Caribbean - 190 Nm Nne Of Curacao
  • Eastern Caribbean - 190 Nm Nne Of Curacao

More Historic Weather Station data

Upgrade to MSW Pro to gain access to the past 30 days of data for over 8000 Wavebouys and Weather Stations around the globe.

Join Pro

Comparision Forecast

View Surf forecast
   
Wed 05/27 12:50am 4ft 7s 5s 13 16 mph 1014.3mb 81f 80f
Tue 05/26 11:50pm 3.5ft 7s 5s 13 16 mph 1014.9mb 81f 80f
10:50pm 4ft 7s 5s 11 13 mph 1015.3mb 81f 80f
9:50pm 4ft 6s 5s 13 16 mph 1014.9mb 81f 80f
8:50pm 4.5ft 7s 5s 13 16 mph 1014.7mb 81f 80f
7:50pm 4.5ft 7s 6s 13 16 mph 1014.3mb 81f 80f
6:50pm 4ft 7s 5s 11 13 mph 1014mb 81f 80f
5:50pm 4ft 7s 5s 11 13 mph 1014mb 81f 81f
4:50pm 4.5ft 6s 5s 11 13 mph 1013.6mb 81f 81f
3:50pm 4ft 7s 5s 11 13 mph 1013.6mb 81f 81f
2:50pm 4.5ft 7s 5s 11 13 mph 1014.3mb 81f 80f
12:50pm 4ft 6s 5s 9 11 mph 1015.6mb 81f 80f
11:50am 4.5ft 6s 5s 11
mph
1016.2mb 81f 80f
10:50am 4.5ft 7s 5s 11 13 mph 1016.7mb 81f 80f
9:50am 4.5ft 6s 5s 13 16 mph 1016.7mb 81f 80f
8:50am 5ft 6s 5s 13 16 mph 1016.4mb 81f 80f
7:50am 4.5ft 7s 5s 16 18 mph 1015.9mb 81f 80f
6:50am 5ft 7s 5s 16 20 mph 1015.4mb 81f 80f
5:50am 4.5ft 7s 5s 13 16 mph 1014.9mb 81f 80f
4:50am 4.5ft 8s 5s 13 16 mph 1014.8mb 81f 80f
3:50am 4.5ft 7s 5s 16 18 mph 1014.6mb 81f 80f
2:50am 4.5ft 7s 5s 16 18 mph 1014.7mb 81f 80f
1:50am 4.5ft 7s 5s 16 18 mph 1015mb 81f 80f
12:50am 5ft 7s 5s 16 18 mph 1015.6mb 81f 80f
Mon 05/25 11:50pm 4.5ft 8s 5s 18 20 mph 1016mb 81f 81f
10:50pm 5ft 7s 5s 16 20 mph 1016.1mb 81f 81f
9:50pm 4.5ft 6s 5s 18 20 mph 1015.9mb 81f 81f
8:50pm 5.5ft 7s 5s 18 20 mph 1015.8mb 81f 81f
7:50pm 5.5ft 7s 5s 18 20 mph 1015.3mb 81f 81f
6:50pm 5ft 7s 5s 16 20 mph 1015.1mb 81f 81f
5:50pm 5ft 6s 5s 16 18 mph 1014.6mb 81f 81f
4:50pm 5.5ft 7s 5s 13 16 mph 1014.7mb 81f 81f
3:50pm 5.5ft 7s 5s 11 16 mph 1014.8mb 81f 81f
2:50pm 5ft 7s 6s 11 13 mph 1015.2mb 81f 81f
1:50pm 5ft 8s 6s 13 16 mph 1015.8mb 81f 81f
12:50pm 5ft 7s 6s 13 16 mph 1016.2mb 81f 81f
11:50am 5ft 7s 6s 13 16 mph 1016.6mb 81f 81f
10:50am 5ft 8s 6s 13 16 mph 1016.8mb 81f 81f
9:50am 5ft 8s 5s 13 16 mph 1016.9mb 81f 80f
8:50am 6ft 7s 6s 16 18 mph 1016.5mb 81f 81f
7:50am 5.5ft 7s 5s 16 18 mph 1016.2mb 81f 81f
6:50am 6ft 8s 5s 16 18 mph 1015.8mb 81f 80f
5:50am 6ft 8s 6s 16 18 mph 1015.4mb 81f 80f
4:50am 5.5ft 7s 5s 16 18 mph 1015.2mb 81f 80f
3:50am 6ft 8s 6s 16 18 mph 1015.1mb 81f 80f
2:50am 5ft 7s 5s 16 18 mph 1015.1mb 81f 80f